Weather History for Houlton, ME

Change the Weather History Date:

Sunday, February 17, 2013

  Actual Average Record
Temperature  
Mean Temperature 22 °F 16 °F  
Max Temperature 25 °F 27 °F 47 °F (2006)
Min Temperature 18 °F 4 °F -26 °F (2004)
Degree Days  
Heating Degree Days 43 49  
Month to date heating degree days 844 876  
Since 1 July heating degree days 5641 6051  
Cooling Degree Days 0 0  
Month to date cooling degree days 0 0  
Year to date cooling degree days 0 0  
Moisture  
Dew Point 15 °F    
Average Humidity 80    
Maximum Humidity 88    
Minimum Humidity 71    
Precipitation  
Precipitation 0.02 in 0.06 in 1.36 in (1954)
Month to date precipitation 0.42 1.21  
Year to date precipitation 1.88 4.07  
Sea Level Pressure  
Sea Level Pressure 29.29 in    
Wind  
Wind Speed 17 mph (North)    
Max Wind Speed 26 mph    
Max Gust Speed 39 mph    
Visibility 2 miles    
Events Fog , Snow    
T = Trace of Precipitation, MM = Missing Value Source: NWS Daily Summary

Daily Weather History Graph

Daily Weather History Graph

Search for Another Location

Airport:

Trip Planner

Search our weather history database for the weather conditions in past years. The results will help you decide how hot, cold, wet, or windy it might be!

Date:

Astronomy

Feb. 17, 2013 Rise Set
Actual Time 6:30 AM EST 5:00 PM EST
Civil Twilight 5:59 AM EST 5:31 PM EST
Nautical Twilight 5:24 AM EST 6:06 PM EST
Astronomical Twilight 4:50 AM EST 6:40 PM EST
Moon 9:54 AM EST (2/17) 12:18 AM EST (2/17)
Length of Visible Light 11h 31m
Length of Day
10h 30m
Waxing Crescent, 49% of the Moon is Illuminated
Feb 17
Waxing Crescent
Feb 17
First Quarter
Feb 25
Full
Mar 4
Last Quarter
Mar 11
New

Hourly Weather History & Observations

Time (EST) Temp. Windchill Dew Point Humidity Pressure Visibility Wind Dir Wind Speed Gust Speed Precip Events Conditions
12:53 AM 24.1 °F 15.2 °F 19.9 °F 84% 29.77 in 1.5 mi North 8.1 mph - 0.00 in Snow Light Snow
1:02 AM 24.8 °F 14.6 °F 19.4 °F 80% 29.74 in 1.5 mi North 10.4 mph - 0.00 in Snow Light Snow
1:11 AM 24.8 °F 14.6 °F 19.4 °F 80% 29.74 in 2.0 mi North 10.4 mph - 0.00 in Snow Light Snow
1:43 AM 23.0 °F 11.7 °F 19.4 °F 86% 29.73 in 3.0 mi North 11.5 mph - 0.00 in Snow Light Snow
1:51 AM 23.0 °F 11.7 °F 17.6 °F 80% 29.72 in 2.5 mi North 11.5 mph - 0.00 in Snow Light Snow
1:53 AM 23.0 °F 10.6 °F 18.0 °F 81% 29.74 in 2.0 mi North 13.8 mph - 0.00 in Snow Light Snow
2:06 AM 21.2 °F 10.9 °F 17.6 °F 86% 29.70 in 1.8 mi North 9.2 mph - 0.00 in Snow Light Snow
2:35 AM 21.2 °F 8.9 °F 17.6 °F 86% 29.66 in 2.5 mi North 12.7 mph - 0.00 in Snow Light Snow
2:40 AM 21.2 °F 9.5 °F 17.6 °F 86% 29.66 in 3.0 mi North 11.5 mph - 0.00 in Snow Light Snow
2:53 AM 21.9 °F 9.8 °F 17.1 °F 82% 29.70 in 4.0 mi North 12.7 mph - 0.00 in Snow Light Snow
3:20 AM 21.2 °F 10.1 °F 17.6 °F 86% 29.65 in 8.0 mi North 10.4 mph - N/A   Overcast
3:53 AM 21.9 °F 9.8 °F 17.1 °F 82% 29.65 in 2.5 mi North 12.7 mph - 0.00 in Snow Light Snow
4:16 AM 21.2 °F 7.3 °F 15.8 °F 80% 29.60 in 2.5 mi North 16.1 mph - 0.00 in Snow Light Snow
4:40 AM 19.4 °F 7.9 °F 15.8 °F 86% 29.60 in 1.8 mi North 10.4 mph 20.7 mph 0.00 in Snow Light Snow
4:50 AM 19.4 °F 6.6 °F 15.8 °F 86% 29.60 in 2.5 mi North 12.7 mph - 0.00 in Snow Light Snow
4:53 AM 19.9 °F 7.3 °F 16.0 °F 85% 29.62 in 2.5 mi North 12.7 mph - 0.00 in Snow Light Snow
4:58 AM 19.4 °F 8.6 °F 15.8 °F 86% 29.59 in 1.8 mi North 9.2 mph 19.6 mph 0.00 in Snow Light Snow
5:07 AM 19.4 °F 5.0 °F 15.8 °F 86% 29.58 in 1.0 mi North 16.1 mph 20.7 mph 0.00 in Snow Light Snow
5:16 AM 19.4 °F 6.6 °F 15.8 °F 86% 29.58 in 0.8 mi North 12.7 mph 19.6 mph 0.00 in Snow Light Snow
5:28 AM 19.4 °F 5.5 °F 15.8 °F 86% 29.57 in 1.0 mi North 15.0 mph - 0.00 in Snow Light Snow
5:53 AM 19.9 °F 6.2 °F 15.1 °F 81% 29.60 in 1.2 mi North 15.0 mph 21.9 mph 0.00 in Snow Light Snow
6:03 AM 19.4 °F 6.0 °F 15.8 °F 86% 29.57 in 1.2 mi North 13.8 mph 23.0 mph 0.00 in Snow Light Snow
6:15 AM 19.4 °F 6.6 °F 14.0 °F 80% 29.56 in 1.5 mi North 12.7 mph 21.9 mph 0.00 in Snow Light Snow
6:22 AM 19.4 °F 4.5 °F 14.0 °F 80% 29.55 in 1.0 mi North 17.3 mph 21.9 mph 0.00 in Snow Light Snow
6:43 AM 19.4 °F 4.5 °F 14.0 °F 80% 29.52 in 1.0 mi North 17.3 mph - 0.00 in   Haze
6:50 AM 17.6 °F 2.2 °F 14.0 °F 86% 29.52 in 0.8 mi North 17.3 mph - 0.00 in   Mist
6:53 AM 18.0 °F 1.7 °F 14.0 °F 84% 29.55 in 0.5 mi North 19.6 mph 25.3 mph 0.00 in Fog Light Freezing Fog
7:38 AM 17.6 °F 2.2 °F 12.2 °F 79% 29.48 in 0.8 mi North 17.3 mph - N/A   Haze
7:51 AM 17.6 °F 3.2 °F 12.2 °F 79% 29.48 in 1.0 mi North 15.0 mph 28.8 mph N/A   Haze
7:53 AM 18.0 °F 3.1 °F 12.9 °F 81% 29.50 in 1.2 mi North 16.1 mph 27.6 mph N/A   Haze
8:01 AM 17.6 °F 1.3 °F 12.2 °F 79% 29.47 in 2.0 mi North 19.6 mph 25.3 mph N/A   Haze
8:24 AM 17.6 °F 0.9 °F 12.2 °F 79% 29.44 in 1.2 mi North 20.7 mph 29.9 mph N/A   Haze
8:40 AM 17.6 °F 0.5 °F 12.2 °F 79% 29.43 in 1.8 mi North 21.9 mph 27.6 mph N/A   Haze
8:53 AM 18.0 °F 0.9 °F 12.0 °F 78% 29.44 in 2.0 mi North 21.9 mph 28.8 mph N/A   Haze
9:04 AM 17.6 °F 1.3 °F 12.2 °F 79% 29.40 in 1.8 mi North 19.6 mph 31.1 mph N/A   Haze
9:31 AM 17.6 °F 1.3 °F 12.2 °F 79% 29.37 in 3.0 mi North 19.6 mph 28.8 mph N/A   Haze
9:53 AM 18.0 °F 1.7 °F 12.0 °F 78% 29.37 in 3.0 mi North 19.6 mph 31.1 mph N/A   Haze
10:01 AM 17.6 °F 0.5 °F 12.2 °F 79% 29.34 in 2.5 mi North 21.9 mph 31.1 mph N/A   Haze
10:18 AM 17.6 °F 1.3 °F 12.2 °F 79% 29.32 in 3.0 mi North 19.6 mph 28.8 mph N/A   Haze
10:25 AM 17.6 °F 0.5 °F 12.2 °F 79% 29.31 in 2.0 mi North 21.9 mph 33.4 mph N/A   Haze
10:32 AM 17.6 °F 0.1 °F 12.2 °F 79% 29.30 in 1.5 mi North 23.0 mph 33.4 mph 0.00 in Snow Light Snow
10:46 AM 17.6 °F 2.2 °F 12.2 °F 79% 29.29 in 2.0 mi North 17.3 mph 31.1 mph 0.00 in Snow Light Snow
10:53 AM 18.0 °F 0.9 °F 12.9 °F 81% 29.31 in 3.0 mi North 21.9 mph 29.9 mph 0.00 in Snow Light Snow
11:53 AM 19.0 °F 3.6 °F 12.9 °F 77% 29.21 in 4.0 mi North 18.4 mph 32.2 mph 0.00 in Snow Light Snow
12:53 PM 19.9 °F 3.9 °F 12.9 °F 74% 29.13 in 4.0 mi North 20.7 mph 34.5 mph 0.00 in   Overcast
1:53 PM 19.9 °F 2.8 °F 14.0 °F 78% 29.07 in 4.0 mi NNW 24.2 mph 35.7 mph 0.00 in   Overcast
2:06 PM 19.4 °F 3.2 °F 14.0 °F 80% 29.03 in 1.8 mi North 20.7 mph 32.2 mph 0.00 in Snow Light Snow
2:16 PM 19.4 °F 3.2 °F 14.0 °F 80% 29.03 in 0.8 mi North 20.7 mph 33.4 mph 0.00 in Snow Light Snow
2:32 PM 19.4 °F 2.1 °F 15.8 °F 86% 29.02 in 0.5 mi North 24.2 mph 32.2 mph 0.00 in Snow Snow
2:53 PM 19.9 °F 3.9 °F 15.1 °F 81% 29.03 in 0.5 mi NNW 20.7 mph 33.4 mph 0.00 in Snow Snow
3:07 PM 19.4 °F 2.8 °F 15.8 °F 86% 29.00 in 1.2 mi NNW 21.9 mph 29.9 mph 0.00 in   Haze
3:26 PM 19.4 °F 3.2 °F 14.0 °F 80% 28.99 in 0.8 mi NNW 20.7 mph 39.1 mph 0.00 in   Haze
3:36 PM 19.4 °F 2.8 °F 14.0 °F 80% 28.98 in 1.0 mi NNW 21.9 mph 31.1 mph 0.00 in Snow Light Snow
3:49 PM 19.4 °F 2.8 °F 14.0 °F 80% 28.97 in 1.5 mi North 21.9 mph 33.4 mph 0.00 in Snow Light Snow
3:53 PM 19.9 °F 2.2 °F 14.0 °F 78% 29.00 in 1.2 mi NNW 26.5 mph 36.8 mph 0.00 in Snow Light Snow
4:17 PM 19.4 °F 2.5 °F 14.0 °F 80% 28.96 in 1.5 mi NNW 23.0 mph 32.2 mph 0.00 in   Haze
4:25 PM 19.4 °F 4.1 °F 14.0 °F 80% 28.96 in 1.0 mi NNW 18.4 mph 32.2 mph 0.00 in   Haze
4:37 PM 19.4 °F 3.6 °F 15.8 °F 86% 28.96 in 0.5 mi NNW 19.6 mph 31.1 mph 0.00 in Fog , Snow Snow
4:47 PM 19.4 °F 3.6 °F 14.0 °F 80% 28.95 in 1.5 mi NNW 19.6 mph 31.1 mph 0.00 in Snow Light Snow
4:53 PM 19.9 °F 3.5 °F 15.1 °F 81% 28.98 in 1.0 mi NNW 21.9 mph 36.8 mph 0.00 in Snow Light Snow
5:03 PM 19.4 °F 4.5 °F 15.8 °F 86% 28.95 in 0.8 mi NNW 17.3 mph 32.2 mph 0.00 in Snow Light Snow
5:15 PM 19.4 °F - 15.8 °F 86% 28.96 in 0.8 mi North - - 0.00 in Snow Light Snow
5:53 PM 21.0 °F - 16.0 °F 81% 28.98 in 0.8 mi North - - 0.00 in Snow Light Snow
6:25 PM 21.2 °F - 17.6 °F 86% 28.94 in 0.8 mi North - - 0.00 in Snow Light Snow
6:42 PM 21.2 °F - 17.6 °F 86% 28.94 in 1.0 mi North - - 0.00 in Snow Light Snow
6:53 PM 21.0 °F - 16.0 °F 81% 28.97 in 1.2 mi North - - 0.00 in Snow Light Snow
7:01 PM 21.2 °F - 15.8 °F 80% 28.93 in 1.5 mi North - - 0.00 in Snow Light Snow
7:38 PM 21.2 °F - 15.8 °F 80% 28.93 in 2.0 mi North - - N/A Snow Light Snow
7:53 PM 21.0 °F - 15.1 °F 78% 28.97 in 2.5 mi North - - 0.00 in Snow Light Snow
8:02 PM 21.2 °F - 14.0 °F 74% 28.94 in 3.0 mi North - - 0.00 in Snow Light Snow
8:53 PM 21.0 °F - 14.0 °F 74% 28.98 in 3.0 mi North - - 0.01 in Snow Light Snow
9:08 PM 21.2 °F - 14.0 °F 74% 28.96 in 2.5 mi North - - 0.00 in Snow Light Snow
9:36 PM 21.2 °F - 14.0 °F 74% 28.96 in 3.0 mi North - - 0.00 in Snow Light Snow
9:53 PM 21.0 °F - 14.0 °F 74% 28.99 in 3.0 mi North - - 0.00 in Snow Light Snow
10:00 PM 21.2 °F - 14.0 °F 74% 28.97 in 2.5 mi North - - 0.00 in Snow Light Snow
10:21 PM 19.4 °F - 14.0 °F 80% 28.98 in 2.0 mi North - - 0.00 in Snow Light Snow
10:51 PM 19.4 °F - 14.0 °F 80% 28.99 in 1.8 mi North - - 0.01 in Snow Light Snow
10:53 PM 19.9 °F - 14.0 °F 78% 29.02 in 1.8 mi North - - 0.01 in Snow Light Snow
11:39 PM 19.4 °F - 12.2 °F 74% 29.02 in 1.2 mi North - - 0.00 in Snow Light Snow
11:53 PM 18.0 °F - 12.9 °F 81% 29.05 in 1.0 mi North - - 0.00 in Snow Light Snow